N4279U KSGF-KXNA

Flight info

Callsign N4279U
Flight time 0h 31m
Altitude 8000
Route JENKY SUEEY
Aircraft BE58/L-VGD/C

Departure

Time 2026-05-07 21:03
Airport Springfield Branson National Airport (KSGF)

Arrival

Time 2026-05-07 21:34
Airport Northwest Arkansas National Airport (KXNA)
Time Latitude Longitude Altitude Speed Heading
2026-05-07 20:58 37.24881 -93.37959 1262 ft 0 kts 110°
2026-05-07 21:00 37.24881 -93.37950 1263 ft 4 kts 69°
2026-05-07 21:00 37.24907 -93.37971 1262 ft 3 kts 302°
2026-05-07 21:00 37.24909 -93.37976 1262 ft 0 kts 300°
2026-05-07 21:00 37.24927 -93.38026 1260 ft 17 kts 295°
2026-05-07 21:01 37.25036 -93.38032 1260 ft 23 kts 22°
2026-05-07 21:01 37.25218 -93.37942 1260 ft 28 kts 16°
2026-05-07 21:01 37.25312 -93.37943 1259 ft 0 kts 307°
2026-05-07 21:02 37.25317 -93.37952 1259 ft 9 kts 299°
2026-05-07 21:02 37.25280 -93.38060 1256 ft 34 kts 208°
2026-05-07 21:02 37.24833 -93.38290 1259 ft 97 kts 203°
2026-05-07 21:02 37.24122 -93.38635 1356 ft 120 kts 203°
2026-05-07 21:03 37.23335 -93.39058 1650 ft 129 kts 205°
2026-05-07 21:03 37.22498 -93.39516 1975 ft 133 kts 202°
2026-05-07 21:03 37.21631 -93.39855 2378 ft 129 kts 201°
2026-05-07 21:03 37.20761 -93.40201 2689 ft 134 kts 201°
2026-05-07 21:04 37.19867 -93.40552 3007 ft 136 kts 201°
2026-05-07 21:04 37.18962 -93.40906 3319 ft 137 kts 210°
2026-05-07 21:04 37.18350 -93.41728 3634 ft 131 kts 253°
2026-05-07 21:04 37.18114 -93.42826 3956 ft 131 kts 238°
2026-05-07 21:05 37.17439 -93.43591 4276 ft 134 kts 219°
2026-05-07 21:05 37.16674 -93.44263 4592 ft 134 kts 218°
2026-05-07 21:05 37.15904 -93.44914 4896 ft 135 kts 217°
2026-05-07 21:05 37.15118 -93.45566 5187 ft 136 kts 217°
2026-05-07 21:06 37.14315 -93.46220 5492 ft 136 kts 216°
2026-05-07 21:06 37.13521 -93.46860 5782 ft 137 kts 217°
2026-05-07 21:06 37.12724 -93.47497 6082 ft 136 kts 217°
2026-05-07 21:06 37.11932 -93.48126 6377 ft 135 kts 216°
2026-05-07 21:07 37.11129 -93.48762 6657 ft 136 kts 217°
2026-05-07 21:07 37.10334 -93.49390 6925 ft 137 kts 218°
2026-05-07 21:07 37.09521 -93.50030 7191 ft 137 kts 218°
2026-05-07 21:07 37.08720 -93.50661 7448 ft 138 kts 219°
2026-05-07 21:08 37.07896 -93.51308 7706 ft 139 kts 219°
2026-05-07 21:08 37.07079 -93.51950 7965 ft 139 kts 220°
2026-05-07 21:08 37.06222 -93.52629 7999 ft 155 kts 219°
2026-05-07 21:08 37.05260 -93.53389 7988 ft 169 kts 219°
2026-05-07 21:09 37.04236 -93.54194 7986 ft 178 kts 218°
2026-05-07 21:09 37.03182 -93.55019 7982 ft 181 kts 218°
2026-05-07 21:09 37.02102 -93.55865 7981 ft 183 kts 218°
2026-05-07 21:09 37.01015 -93.56715 7980 ft 184 kts 218°
2026-05-07 21:10 36.99921 -93.57571 7979 ft 185 kts 218°
2026-05-07 21:10 36.98825 -93.58429 7982 ft 185 kts 218°
2026-05-07 21:10 36.97738 -93.59280 7980 ft 186 kts 218°
2026-05-07 21:10 36.96639 -93.60139 7980 ft 186 kts 218°
2026-05-07 21:11 36.95541 -93.60997 7979 ft 186 kts 219°
2026-05-07 21:11 36.94441 -93.61856 7978 ft 187 kts 218°
2026-05-07 21:11 36.92225 -93.63588 7978 ft 187 kts 218°
2026-05-07 21:12 36.91120 -93.64450 7979 ft 187 kts 218°
2026-05-07 21:12 36.90016 -93.65312 7981 ft 187 kts 218°
2026-05-07 21:12 36.88908 -93.66178 7982 ft 187 kts 218°
2026-05-07 21:12 36.87814 -93.67030 7978 ft 188 kts 218°
2026-05-07 21:13 36.86707 -93.67894 7977 ft 187 kts 217°
2026-05-07 21:13 36.85598 -93.68758 7979 ft 187 kts 218°
2026-05-07 21:13 36.84491 -93.69621 7979 ft 187 kts 217°
2026-05-07 21:13 36.83388 -93.70480 7981 ft 187 kts 217°
2026-05-07 21:14 36.82273 -93.71348 7981 ft 187 kts 218°
2026-05-07 21:14 36.81168 -93.72209 7981 ft 188 kts 217°
2026-05-07 21:14 36.80057 -93.73073 7981 ft 187 kts 218°
2026-05-07 21:14 36.78970 -93.73972 7977 ft 184 kts 227°
2026-05-07 21:15 36.77932 -93.74895 7985 ft 188 kts 213°
2026-05-07 21:15 36.76762 -93.75634 7984 ft 188 kts 213°
2026-05-07 21:15 36.75590 -93.76400 7983 ft 188 kts 213°
2026-05-07 21:15 36.74446 -93.77171 7983 ft 188 kts 214°
2026-05-07 21:16 36.73294 -93.77964 7984 ft 188 kts 215°
2026-05-07 21:16 36.72151 -93.78759 7983 ft 188 kts 215°
2026-05-07 21:16 36.71017 -93.79555 7982 ft 188 kts 215°
2026-05-07 21:16 36.69866 -93.80363 7982 ft 188 kts 215°
2026-05-07 21:17 36.68723 -93.81168 7986 ft 188 kts 216°
2026-05-07 21:17 36.67583 -93.81973 7985 ft 188 kts 216°
2026-05-07 21:17 36.66457 -93.82769 7974 ft 189 kts 215°
2026-05-07 21:17 36.65292 -93.83591 7876 ft 193 kts 215°
2026-05-07 21:18 36.64127 -93.84415 7782 ft 195 kts 215°
2026-05-07 21:18 36.62932 -93.85259 7685 ft 196 kts 214°
2026-05-07 21:18 36.61738 -93.86102 7555 ft 197 kts 214°
2026-05-07 21:18 36.60568 -93.86935 7406 ft 190 kts 217°
2026-05-07 21:19 36.59622 -93.88017 7239 ft 183 kts 231°
2026-05-07 21:19 36.58773 -93.89185 7070 ft 179 kts 231°
2026-05-07 21:19 36.57963 -93.90324 6893 ft 174 kts 239°
2026-05-07 21:19 36.57503 -93.91692 6706 ft 169 kts 253°
2026-05-07 21:20 36.57162 -93.93085 6522 ft 168 kts 255°
2026-05-07 21:20 36.56841 -93.94476 6331 ft 168 kts 255°
2026-05-07 21:20 36.56525 -93.95875 6145 ft 167 kts 255°
2026-05-07 21:20 36.56215 -93.97259 5958 ft 167 kts 255°
2026-05-07 21:21 36.55903 -93.98650 5772 ft 167 kts 255°
2026-05-07 21:21 36.55593 -94.00037 5604 ft 167 kts 255°
2026-05-07 21:21 36.55280 -94.01440 5444 ft 169 kts 255°
2026-05-07 21:21 36.54964 -94.02850 5293 ft 171 kts 255°
2026-05-07 21:22 36.54641 -94.04294 5068 ft 175 kts 255°
2026-05-07 21:22 36.54311 -94.05771 4852 ft 178 kts 255°
2026-05-07 21:22 36.53979 -94.07250 4637 ft 179 kts 255°
2026-05-07 21:22 36.53645 -94.08743 4419 ft 180 kts 255°
2026-05-07 21:23 36.53306 -94.10252 4193 ft 180 kts 255°
2026-05-07 21:23 36.52973 -94.11734 3985 ft 178 kts 255°
2026-05-07 21:23 36.52649 -94.13178 4008 ft 167 kts 255°
2026-05-07 21:23 36.52343 -94.14536 4019 ft 162 kts 256°
2026-05-07 21:24 36.52042 -94.15876 4027 ft 162 kts 255°
2026-05-07 21:24 36.51737 -94.17230 4029 ft 161 kts 255°
2026-05-07 21:24 36.51435 -94.18573 4031 ft 162 kts 255°
2026-05-07 21:24 36.51130 -94.19923 4032 ft 164 kts 255°
2026-05-07 21:25 36.50822 -94.21289 4030 ft 165 kts 255°
2026-05-07 21:25 36.50514 -94.22662 4028 ft 165 kts 255°
2026-05-07 21:25 36.50202 -94.24040 4026 ft 167 kts 255°
2026-05-07 21:25 36.49884 -94.25449 4027 ft 169 kts 255°
2026-05-07 21:26 36.49566 -94.26856 4031 ft 171 kts 255°
2026-05-07 21:26 36.49241 -94.28294 3927 ft 171 kts 255°
2026-05-07 21:26 36.48929 -94.29674 3744 ft 162 kts 255°
2026-05-07 21:26 36.48634 -94.30978 3559 ft 153 kts 255°
2026-05-07 21:27 36.48357 -94.32195 3521 ft 136 kts 255°
2026-05-07 21:27 36.48112 -94.33271 3535 ft 126 kts 255°
2026-05-07 21:27 36.47877 -94.34305 3539 ft 122 kts 255°
2026-05-07 21:27 36.47647 -94.35323 3541 ft 125 kts 255°
2026-05-07 21:28 36.47327 -94.36330 3534 ft 126 kts 232°
2026-05-07 21:28 36.46578 -94.36829 3546 ft 122 kts 196°
2026-05-07 21:28 36.45741 -94.37020 3539 ft 120 kts 194°
2026-05-07 21:28 36.44927 -94.37193 3540 ft 118 kts 194°
2026-05-07 21:29 36.44122 -94.37363 3547 ft 117 kts 194°
2026-05-07 21:29 36.43292 -94.37352 3545 ft 119 kts 174°
2026-05-07 21:29 36.42479 -94.37106 3533 ft 120 kts 167°
2026-05-07 21:29 36.41672 -94.36790 3536 ft 123 kts 166°
2026-05-07 21:30 36.40868 -94.36438 3542 ft 119 kts 164°
2026-05-07 21:30 36.40118 -94.36099 3446 ft 112 kts 164°
2026-05-07 21:30 36.39397 -94.35774 3315 ft 110 kts 165°
2026-05-07 21:30 36.38678 -94.35446 3185 ft 109 kts 164°
2026-05-07 21:31 36.37970 -94.35125 3049 ft 108 kts 163°
2026-05-07 21:31 36.37262 -94.34802 2919 ft 108 kts 163°
2026-05-07 21:31 36.36557 -94.34481 2779 ft 108 kts 165°
2026-05-07 21:31 36.35837 -94.34154 2640 ft 109 kts 164°
2026-05-07 21:32 36.35117 -94.33827 2496 ft 110 kts 163°
2026-05-07 21:32 36.34397 -94.33499 2348 ft 111 kts 163°
2026-05-07 21:32 36.33674 -94.33170 2198 ft 111 kts 164°
2026-05-07 21:32 36.32951 -94.32843 2051 ft 110 kts 163°
2026-05-07 21:33 36.32224 -94.32512 1904 ft 110 kts 164°
2026-05-07 21:33 36.31510 -94.32187 1760 ft 109 kts 163°
2026-05-07 21:33 36.30786 -94.31860 1616 ft 110 kts 163°
2026-05-07 21:33 36.30082 -94.31539 1479 ft 105 kts 164°
2026-05-07 21:34 36.29416 -94.31233 1326 ft 100 kts 163°
2026-05-07 21:34 36.28805 -94.30963 1271 ft 86 kts 158°
2026-05-07 21:34 36.28469 -94.30808 1269 ft 26 kts 159°
2026-05-07 21:34 36.28278 -94.30724 1268 ft 15 kts 159°
2026-05-07 21:35 36.28210 -94.30652 1268 ft 12 kts 95°
2026-05-07 21:35 36.28231 -94.30550 1266 ft 12 kts 65°
2026-05-07 21:35 36.28287 -94.30502 1266 ft 9 kts 20°
2026-05-07 21:35 36.28321 -94.30432 1266 ft 9 kts 51°
2026-05-07 21:36 36.28377 -94.30434 1265 ft 8 kts 342°
2026-05-07 21:36 36.28421 -94.30423 1264 ft 7 kts 90°
2026-05-07 21:36 36.28419 -94.30373 1264 ft 6 kts 38°
2026-05-07 21:36 36.28468 -94.30366 1263 ft 7 kts 334°
2026-05-07 21:37 36.28476 -94.30386 1263 ft 0 kts 269°